period_start,C,m1,H,J0,J1,J2,J3,J4,J5,JA,JB,JC,JD,JJ,JK,JN,#
2016-05-08 00:01:33,0.03,1.08,0.00,20.38,25.20,29.00,14.75,50.13,1020.04,2043.99,3043.17,2871.02,3230.40,599.91,603.46,36.00,0000 0000 0000 0000 000000
2016-05-08 00:06:34,0.00,1.08,0.00,20.40,25.20,29.01,14.81,50.13,1020.05,2043.99,3042.98,2870.99,3230.01,599.89,603.21,36.05,0000 0000 0000 0000 000000
2016-05-08 00:11:36,0.02,1.08,0.00,20.41,25.20,29.02,14.86,50.07,1020.04,2043.99,3042.54,2870.74,3229.98,600.13,603.53,36.10,0000 0000 0000 0000 000000
2016-05-08 00:16:37,0.02,1.08,0.00,20.42,25.20,29.02,14.80,50.04,1020.04,2043.99,3042.03,2870.13,3229.67,599.91,603.12,36.15,0000 0000 0000 0000 000000
2016-05-08 00:21:38,0.01,1.08,0.00,20.43,25.20,29.03,14.76,50.03,1020.04,2043.99,3041.92,2870.01,3229.09,599.69,602.87,36.21,0000 0000 0000 0000 000000
2016-05-08 00:26:40,0.01,1.08,0.00,20.45,25.20,29.01,14.81,50.08,1020.04,2044.00,3041.40,2869.99,3229.00,600.10,603.51,36.26,0000 0000 0000 0000 000000
2016-05-08 00:31:41,0.01,1.08,0.00,20.47,25.20,29.06,14.87,50.18,1020.04,2044.00,3041.01,2869.85,3228.89,600.25,603.55,36.31,0000 0000 0000 0000 000000
2016-05-08 00:36:42,0.02,1.08,0.00,20.48,25.20,29.04,14.87,50.21,1020.04,2044.00,3040.93,2869.26,3228.35,600.20,603.38,36.36,0000 0000 0000 0000 000000
2016-05-08 00:41:43,0.02,1.09,0.00,20.50,25.20,29.07,14.77,50.19,1020.04,2044.00,3040.26,2869.02,3228.02,599.94,602.97,36.41,0000 0000 0000 0000 000000
2016-05-08 00:46:44,0.00,1.09,0.00,20.51,25.20,29.06,14.81,50.02,1020.04,2044.00,3040.00,2868.99,3227.98,600.06,603.10,36.46,0000 0000 0000 0000 000000
2016-05-08 00:51:45,0.01,1.09,0.00,20.52,25.22,29.07,14.80,50.05,1020.04,2044.00,3039.89,2868.86,3227.60,600.15,603.25,36.51,0000 0000 0000 0000 000000
2016-05-08 00:56:47,0.03,1.09,0.00,20.56,25.22,29.09,14.80,49.88,1020.04,2044.00,3039.19,2868.29,3227.07,600.08,603.16,36.56,0000 0000 0000 0000 000000
2016-05-08 01:01:48,0.00,1.09,0.00,20.58,25.22,29.15,14.76,49.99,1020.05,2044.00,3039.00,2868.03,3227.00,599.71,602.73,36.61,0000 0000 0000 0000 000000
2016-05-08 01:06:50,0.00,1.09,0.00,20.59,25.22,29.18,14.80,50.16,1020.05,2044.00,3038.82,2867.99,3226.96,600.12,603.15,36.66,0000 0000 0000 0000 000000
2016-05-08 01:11:51,0.01,1.09,0.00,20.61,25.24,29.19,14.80,50.03,1020.06,2044.00,3038.17,2867.98,3226.58,599.93,602.85,36.71,0000 0000 0000 0000 000000
2016-05-08 01:16:52,0.02,1.09,0.00,20.63,25.25,29.20,14.87,50.15,1020.06,2044.00,3038.01,2867.72,3226.04,600.16,603.02,36.76,0000 0000 0000 0000 000000
2016-05-08 01:21:53,0.01,1.09,0.00,20.64,25.25,29.17,14.76,49.99,1020.05,2043.99,3037.83,2867.09,3225.99,599.95,602.81,36.81,0000 0000 0000 0000 000000
2016-05-08 01:26:54,0.01,1.09,0.00,20.66,25.26,29.25,14.84,50.09,1020.05,2043.98,3037.07,2867.00,3225.84,600.01,602.82,36.86,0000 0000 0000 0000 000000
2016-05-08 01:31:55,0.01,1.09,0.00,20.68,25.27,29.27,14.79,50.12,1020.04,2043.98,3036.99,2866.91,3225.15,599.94,602.78,36.91,0000 0000 0000 0000 000000
2016-05-08 01:36:56,0.03,1.10,0.00,20.71,25.28,29.30,14.84,50.07,1020.04,2043.99,3036.43,2866.27,3225.00,600.01,602.67,36.96,0000 0000 0000 0000 000000
2016-05-08 01:41:57,0.01,1.10,0.00,20.73,25.30,29.29,14.79,50.01,1020.04,2043.94,3036.02,2865.99,3224.58,600.20,602.88,37.01,0000 0000 0000 0000 000000
2016-05-08 01:46:58,0.01,1.10,0.00,20.76,25.30,29.29,14.86,50.15,1020.04,2043.94,3035.79,2865.95,3224.03,600.18,602.82,37.06,0000 0000 0000 0000 000000
2016-05-08 01:52:00,0.03,1.10,0.00,20.79,25.32,29.30,14.78,50.02,1020.04,2043.91,3035.04,2865.28,3223.96,600.13,602.69,37.11,0000 0000 0000 0000 000000
2016-05-08 01:57:01,0.01,1.10,0.00,20.81,25.33,29.34,14.78,49.94,1020.04,2043.83,3034.84,2865.01,3223.31,599.98,602.30,37.17,0000 0000 0000 0000 000000
2016-05-08 02:02:02,0.01,1.10,0.00,20.85,25.35,29.38,14.83,50.15,1020.04,2043.69,3034.06,2864.87,3223.00,600.01,602.45,37.22,0000 0000 0000 0000 000000
2016-05-08 02:07:03,0.00,1.10,0.00,20.89,25.36,29.42,14.76,49.96,1020.04,2043.20,3033.53,2864.08,3222.29,600.03,602.37,37.27,0000 0000 0000 0000 000000
2016-05-08 02:12:04,0.01,1.10,0.00,20.93,25.37,29.43,14.75,49.91,1020.04,2043.18,3033.01,2863.99,3222.00,599.95,602.17,37.32,0000 0000 0000 0000 000000
2016-05-08 02:17:06,0.04,1.10,0.00,20.95,25.39,29.44,14.80,49.97,1020.04,2043.14,3032.40,2863.51,3221.59,600.20,602.45,37.37,0000 0000 0000 0000 000000
2016-05-08 02:22:07,0.01,1.10,0.00,20.97,25.40,29.48,14.75,49.98,1020.04,2043.06,3031.95,2863.02,3221.02,599.91,602.16,37.42,0000 0000 0000 0000 000000
2016-05-08 02:27:08,0.03,1.10,0.00,21.00,25.42,29.49,14.76,50.09,1020.04,2043.04,3031.22,2862.77,3220.68,600.22,602.32,37.47,0000 0000 0000 0000 000000
2016-05-08 02:32:10,0.03,1.11,0.00,21.02,25.44,29.54,14.75,50.11,1020.04,2043.03,3030.62,2862.04,3220.02,599.74,601.91,37.52,0000 0000 0000 0000 000000
2016-05-08 02:37:11,0.02,1.11,0.00,21.06,25.46,29.55,14.74,49.97,1020.04,2043.01,3030.02,2861.91,3219.53,600.19,602.26,37.57,0000 0000 0000 0000 000000
2016-05-08 02:42:12,0.04,1.11,0.00,21.09,25.47,29.59,14.73,49.98,1020.04,2043.03,3029.42,2861.18,3219.01,600.00,601.82,37.62,0000 0000 0000 0000 000000
2016-05-08 02:47:13,0.03,1.11,0.00,21.12,25.50,29.62,14.73,50.01,1020.04,2043.01,3028.72,2860.90,3218.41,599.93,601.81,37.67,0000 0000 0000 0000 000000
2016-05-08 02:52:15,0.03,1.11,0.00,21.15,25.52,29.58,14.85,49.92,1020.04,2043.00,3028.02,2860.11,3217.93,600.44,602.20,37.72,0000 0000 0000 0000 000000
2016-05-08 02:57:16,0.03,1.12,0.00,21.19,25.54,29.65,14.71,49.89,1020.04,2043.00,3027.26,2859.92,3217.15,600.01,601.78,37.77,0000 0000 0000 0000 000000
2016-05-08 03:02:18,0.04,1.12,0.00,21.22,25.57,29.70,14.79,50.08,1020.04,2042.99,3026.70,2859.12,3216.69,600.24,601.83,37.82,0000 0000 0000 0000 000000
2016-05-08 03:07:19,0.02,1.12,0.00,21.26,25.59,29.71,14.78,49.96,1020.04,2042.97,3025.97,2858.83,3216.01,599.77,601.31,37.87,0000 0000 0000 0000 000000
2016-05-08 03:12:20,0.05,1.12,0.00,21.30,25.61,29.77,14.72,50.02,1020.04,2042.92,3025.10,2858.05,3215.21,599.95,601.45,37.92,0000 0000 0000 0000 000000
2016-05-08 03:17:22,-0.01,1.12,0.00,21.33,25.64,29.77,14.84,49.96,1020.04,2042.69,3024.54,2857.82,3214.96,600.13,601.52,37.97,0000 0000 0000 0000 000000
2016-05-08 03:22:23,0.01,1.12,0.00,21.37,25.66,29.82,14.74,50.07,1020.04,2042.33,3024.01,2857.09,3214.16,600.17,601.43,38.02,0000 0000 0000 0000 000000
2016-05-08 03:27:24,-0.01,1.12,0.00,21.42,25.69,29.82,14.82,49.96,1020.04,2042.20,3023.51,2856.98,3213.98,600.20,601.35,38.08,0000 0000 0000 0000 000000
2016-05-08 03:32:25,0.04,1.12,0.00,21.45,25.72,29.81,14.73,50.08,1020.04,2042.08,3022.99,2856.37,3213.30,600.03,601.19,38.13,0000 0000 0000 0000 000000
2016-05-08 03:37:27,0.01,1.12,0.00,21.50,25.75,29.88,14.80,49.91,1020.04,2042.03,3022.36,2856.00,3212.95,600.19,601.30,38.18,0000 0000 0000 0000 000000
2016-05-08 03:42:28,0.05,1.13,0.00,21.53,25.79,29.87,14.76,50.05,1020.04,2042.00,3021.70,2855.31,3212.12,600.07,601.10,38.23,0000 0000 0000 0000 000000
2016-05-08 03:47:30,0.01,1.13,0.00,21.58,25.82,29.89,14.71,50.15,1020.04,2041.99,3021.04,2854.99,3211.74,599.98,600.93,38.28,0000 0000 0000 0000 000000
2016-05-08 03:52:31,0.04,1.13,0.00,21.62,25.85,29.87,14.65,50.13,1020.04,2041.98,3020.47,2854.31,3211.02,599.96,600.74,38.33,0000 0000 0000 0000 000000
2016-05-08 03:57:32,0.02,1.13,0.00,21.66,25.89,29.87,14.70,50.01,1020.04,2041.97,3019.97,2853.99,3210.55,600.07,600.78,38.38,0000 0000 0000 0000 000000
2016-05-08 04:02:34,0.01,1.13,0.00,21.69,25.92,29.95,14.69,50.08,1020.04,2041.62,3019.17,2853.31,3209.99,599.91,600.67,38.43,0000 0000 0000 0000 000000
2016-05-08 04:07:35,-0.01,1.13,0.00,21.72,25.96,29.97,14.74,50.16,1020.02,2041.18,3018.71,2852.99,3209.30,600.24,600.96,38.48,0000 0000 0000 0000 000000
2016-05-08 04:12:36,0.02,1.13,0.00,21.77,25.99,30.01,14.82,50.15,1020.03,2041.02,3018.02,2852.46,3208.94,600.23,600.72,38.53,0000 0000 0000 0000 000000
2016-05-08 04:17:37,0.03,1.13,0.00,21.83,26.03,29.98,14.73,50.13,1020.03,2041.00,3017.39,2852.00,3208.13,600.11,600.46,38.58,0000 0000 0000 0000 000000
2016-05-08 04:22:38,0.03,1.14,0.00,21.88,26.06,30.00,14.73,50.01,1020.03,2041.00,3016.96,2851.44,3207.79,599.84,600.16,38.63,0000 0000 0000 0000 000000
2016-05-08 04:27:40,0.03,1.14,0.00,21.93,26.10,30.05,14.68,49.95,1020.02,2040.98,3016.23,2851.01,3207.04,600.11,600.33,38.68,0000 0000 0000 0000 000000
2016-05-08 04:32:41,0.03,1.14,0.00,22.19,26.14,29.88,14.63,49.65,1020.02,2040.90,3015.80,2850.46,3206.48,599.90,599.53,38.73,0000 0000 0000 0000 000000
2016-05-08 04:37:42,-0.04,1.14,0.00,22.84,26.21,29.73,14.62,49.81,1020.02,2040.36,3015.06,2849.98,3205.94,600.18,598.62,38.78,0000 0000 0000 0000 000000
2016-05-08 04:42:43,0.03,1.14,0.00,23.17,26.28,29.79,14.59,49.69,1020.03,2040.05,3014.56,2849.23,3205.11,599.88,597.58,38.83,0000 0000 0000 0000 000000
2016-05-08 04:47:45,0.04,1.14,0.00,23.38,26.37,29.95,14.47,49.62,1020.03,2040.00,3013.90,2848.65,3204.33,599.97,597.25,38.88,0000 0000 0000 0000 000000
2016-05-08 04:52:46,0.01,1.14,0.00,23.53,26.46,30.04,14.52,49.48,1020.03,2039.74,3013.04,2847.86,3203.42,600.04,597.02,38.94,0000 0000 0000 0000 000000
2016-05-08 04:57:47,0.00,1.14,0.00,23.58,26.54,30.11,14.57,49.63,1020.04,2039.07,3012.17,2847.00,3202.53,599.83,596.88,38.99,0000 0000 0000 0000 000000
2016-05-08 05:02:49,0.05,1.14,0.00,23.72,26.63,30.19,14.53,49.55,1020.05,2038.97,3011.35,2846.14,3201.66,600.06,596.67,39.04,0000 0000 0000 0000 000000
2016-05-08 05:07:50,-0.02,1.14,0.00,23.86,26.73,30.27,14.56,49.61,1020.04,2038.27,3010.36,2845.31,3200.69,600.00,596.34,39.09,0000 0000 0000 0000 000000
2016-05-08 05:12:51,0.05,1.14,0.00,23.91,26.82,30.36,14.57,49.58,1020.04,2038.00,3009.56,2844.54,3199.72,600.08,596.20,39.14,0000 0000 0000 0000 000000
2016-05-08 05:17:52,-0.00,1.15,0.00,23.94,26.91,30.46,14.41,49.65,1020.04,2037.70,3008.69,2843.77,3198.89,599.79,595.95,39.19,0000 0000 0000 0000 000000
2016-05-08 05:22:53,-0.00,1.15,0.00,23.93,27.00,30.55,14.43,49.42,1020.04,2037.05,3007.83,2842.96,3197.99,599.44,595.61,39.24,0000 0000 0000 0000 000000
2016-05-08 05:27:55,0.05,1.15,0.00,24.06,27.09,30.63,14.49,49.50,1020.04,2036.98,3007.01,2842.08,3197.06,600.04,595.95,39.29,0000 0000 0000 0000 000000
2016-05-08 05:32:56,-0.01,1.15,0.00,24.09,27.17,30.69,14.48,49.68,1020.05,2036.33,3006.11,2841.26,3196.16,599.95,595.68,39.34,0000 0000 0000 0000 000000
2016-05-08 05:37:58,0.03,1.15,0.00,24.22,27.25,30.72,14.55,49.57,1020.07,2036.01,3005.31,2840.67,3195.25,600.08,595.62,39.39,0000 0000 0000 0000 000000
2016-05-08 05:42:59,0.03,1.15,0.00,24.30,27.33,30.78,14.55,49.49,1020.10,2035.98,3004.72,2839.98,3194.64,600.18,595.64,39.44,0000 0000 0000 0000 000000
2016-05-08 05:48:00,-0.02,1.15,0.00,24.34,27.40,30.81,14.49,49.42,1020.12,2035.41,3003.91,2839.14,3193.71,599.80,595.30,39.49,0000 0000 0000 0000 000000
2016-05-08 05:53:02,0.02,1.15,0.00,24.33,27.47,30.84,14.46,49.50,1020.14,2035.02,3003.08,2838.64,3193.02,599.91,595.34,39.54,0000 0000 0000 0000 000000
2016-05-08 05:58:03,0.04,1.15,0.00,24.39,27.54,30.88,14.42,49.42,1020.10,2034.99,3002.33,2837.98,3192.24,599.82,595.23,39.59,0000 0000 0000 0000 000000
2016-05-08 06:03:04,0.02,1.16,0.00,24.41,27.60,30.91,14.42,49.40,1020.08,2034.74,3001.69,2837.20,3191.55,600.05,595.26,39.64,0000 0000 0000 0000 000000
2016-05-08 06:08:06,-0.03,1.15,0.00,24.42,27.66,30.94,14.50,49.49,1020.06,2034.08,3001.00,2836.83,3190.91,600.08,595.28,39.69,0000 0000 0000 0000 000000
2016-05-08 06:13:07,0.05,1.16,0.00,24.48,27.72,30.96,14.50,49.38,1020.05,2034.01,3000.21,2836.05,3190.10,599.89,594.97,39.74,0000 0000 0000 0000 000000
2016-05-08 06:18:08,0.03,1.16,0.00,24.54,27.77,31.00,14.49,49.22,1020.05,2033.99,2999.76,2835.70,3189.61,599.97,594.89,39.79,0000 0000 0000 0000 000000
2016-05-08 06:23:10,0.01,1.16,0.00,24.57,27.82,31.02,14.40,49.31,1020.04,2033.86,2999.00,2835.02,3188.96,599.75,594.63,39.84,0000 0000 0000 0000 000000
2016-05-08 06:28:11,-0.01,1.16,0.00,24.57,27.86,31.05,14.48,49.32,1020.05,2033.26,2998.20,2834.46,3188.15,599.92,594.75,39.90,0000 0000 0000 0000 000000
2016-05-08 06:33:12,0.00,1.16,0.00,24.43,27.90,31.07,14.50,49.45,1020.05,2033.01,2997.85,2834.01,3187.83,600.36,595.43,39.95,0000 0000 0000 0000 000000
2016-05-08 06:38:13,0.04,1.16,0.00,24.50,27.93,31.09,14.48,49.39,1020.05,2033.00,2997.05,2833.49,3187.06,599.94,595.01,40.00,0000 0000 0000 0000 000000
2016-05-08 06:43:14,0.03,1.16,0.00,24.57,27.97,31.10,14.61,49.43,1020.05,2033.00,2996.48,2833.01,3186.61,600.47,595.36,40.05,0000 0000 0000 0000 000000
2016-05-08 06:48:15,0.02,1.16,0.00,24.62,28.00,31.12,14.49,49.44,1020.05,2032.94,2996.00,2832.63,3186.02,599.98,594.78,40.10,0000 0000 0000 0000 000000
2016-05-08 06:53:16,0.01,1.16,0.00,24.63,28.03,31.15,14.45,49.44,1020.04,2032.68,2995.33,2832.03,3185.63,599.90,594.73,40.15,0000 0000 0000 0000 000000
2016-05-08 06:58:18,-0.03,1.16,0.00,24.67,28.06,31.16,14.49,49.40,1020.04,2032.17,2994.97,2831.86,3185.02,600.06,594.81,40.20,0000 0000 0000 0000 000000
2016-05-08 07:03:19,0.04,1.16,0.00,24.70,28.09,31.17,14.45,49.35,1020.04,2032.03,2994.19,2831.13,3184.68,599.90,594.60,40.25,0000 0000 0000 0000 000000
2016-05-08 07:08:21,0.01,1.17,0.00,24.70,28.11,31.17,14.43,49.31,1020.04,2032.00,2993.79,2830.97,3184.02,600.07,594.68,40.30,0000 0000 0000 0000 000000
2016-05-08 07:13:22,0.04,1.17,0.00,24.72,28.13,31.18,14.48,49.27,1020.05,2032.00,2993.06,2830.41,3183.76,600.01,594.58,40.35,0000 0000 0000 0000 000000
2016-05-08 07:18:23,0.01,1.17,0.00,24.74,28.15,31.20,14.44,49.38,1020.12,2032.00,2992.88,2830.01,3183.06,600.10,594.64,40.40,0000 0000 0000 0000 000000
2016-05-08 07:23:24,0.02,1.17,0.00,24.73,28.17,31.21,14.46,49.55,1020.09,2032.00,2992.09,2829.93,3182.97,600.00,594.68,40.45,0000 0000 0000 0000 000000
2016-05-08 07:28:25,0.04,1.17,0.00,24.73,28.17,31.20,14.53,49.53,1020.11,2032.00,2991.97,2829.32,3182.32,600.17,594.78,40.50,0000 0000 0000 0000 000000
2016-05-08 07:33:27,0.01,1.17,0.00,24.76,28.18,31.21,14.51,49.70,1020.12,2031.99,2991.29,2829.00,3182.00,600.23,594.90,40.55,0000 0000 0000 0000 000000
2016-05-08 07:38:28,0.00,1.17,0.00,24.78,28.20,31.21,14.51,49.52,1020.10,2031.96,2990.99,2828.97,3181.85,600.23,594.75,40.60,0000 0000 0000 0000 000000
2016-05-08 07:43:29,0.04,1.17,0.00,24.79,28.20,31.21,14.36,49.45,1020.12,2031.95,2990.47,2828.52,3181.20,599.86,594.31,40.65,0000 0000 0000 0000 000000
2016-05-08 07:48:31,0.00,1.18,0.00,24.79,28.20,31.21,14.51,49.55,1020.09,2031.89,2990.00,2828.04,3181.00,600.11,594.57,40.70,0000 0000 0000 0000 000000
2016-05-08 07:53:32,0.01,1.18,0.00,24.80,28.22,31.23,14.40,49.47,1020.08,2031.82,2989.73,2828.00,3180.85,599.80,594.63,40.75,0000 0000 0000 0000 000000
2016-05-08 07:58:33,0.01,1.18,0.00,24.81,28.22,31.21,14.43,49.48,1020.12,2031.74,2989.06,2827.82,3180.14,599.83,594.20,40.80,0000 0000 0000 0000 000000
2016-05-08 08:03:34,0.00,1.18,0.00,24.82,28.22,31.21,14.53,49.39,1020.07,2031.44,2988.97,2827.11,3180.00,600.02,594.41,40.86,0000 0000 0000 0000 000000
2016-05-08 08:08:36,0.02,1.18,0.00,24.84,28.22,31.22,14.44,49.38,1020.07,2031.40,2988.24,2827.00,3179.89,600.02,594.39,40.91,0000 0000 0000 0000 000000
2016-05-08 08:13:37,-0.01,1.18,0.00,24.86,28.23,31.24,14.45,49.46,1020.05,2031.30,2988.00,2826.98,3179.19,600.09,594.49,40.96,0000 0000 0000 0000 000000
2016-05-08 08:18:38,0.02,1.18,0.00,24.86,28.24,31.24,14.40,49.40,1020.05,2031.26,2987.80,2826.74,3179.00,599.63,593.88,41.01,0000 0000 0000 0000 000000
2016-05-08 08:23:39,0.01,1.18,0.00,24.86,28.25,31.22,14.49,49.50,1020.08,2031.17,2987.06,2826.09,3178.97,600.28,594.49,41.06,0000 0000 0000 0000 000000
2016-05-08 08:28:41,0.01,1.18,0.00,24.87,28.25,31.22,14.44,49.71,1020.10,2031.25,2986.99,2826.00,3178.61,599.78,594.22,41.11,0000 0000 0000 0000 000000
2016-05-08 08:33:42,0.02,1.18,0.00,24.88,28.25,31.23,14.44,49.59,1020.07,2031.26,2986.57,2825.99,3178.07,600.00,594.24,41.16,0000 0000 0000 0000 000000
2016-05-08 08:38:44,0.01,1.18,0.00,24.89,28.25,31.22,14.46,49.66,1020.09,2031.25,2986.02,2825.91,3178.00,599.81,594.13,41.21,0000 0000 0000 0000 000000
2016-05-08 08:43:45,0.02,1.18,0.00,24.90,28.25,31.22,14.42,49.52,1020.10,2031.26,2985.98,2825.35,3177.99,599.67,593.91,41.26,0000 0000 0000 0000 000000
2016-05-08 08:48:46,0.01,1.18,0.00,24.89,28.25,31.22,14.54,49.64,1020.16,2031.28,2985.73,2825.07,3177.73,600.14,594.57,41.31,0000 0000 0000 0000 000000
2016-05-08 08:53:48,0.01,1.18,0.00,24.87,28.24,31.22,14.44,49.46,1020.11,2031.25,2985.07,2825.00,3177.15,599.80,594.16,41.36,0000 0000 0000 0000 000000
2016-05-08 08:58:49,0.00,1.18,0.00,24.88,28.22,31.23,14.48,49.44,1020.11,2031.16,2984.99,2825.00,3177.00,600.30,594.60,41.41,0000 0000 0000 0000 000000
2016-05-08 09:03:51,0.01,1.18,0.00,24.87,28.22,31.22,14.44,49.35,1020.15,2031.15,2984.51,2824.85,3176.96,600.11,594.30,41.46,0000 0000 0000 0000 000000
2016-05-08 09:08:52,0.04,1.19,0.00,24.90,28.22,31.23,14.47,49.46,1020.37,2031.33,2984.04,2824.49,3176.88,599.90,594.32,41.51,0000 0000 0000 0000 000000
2016-05-08 09:13:53,0.02,1.19,0.00,24.88,28.22,31.21,14.52,49.61,1020.42,2031.47,2984.00,2824.08,3176.22,600.05,594.56,41.56,0000 0000 0000 0000 000000
2016-05-08 09:18:54,0.01,1.19,0.00,24.90,28.20,31.20,14.43,49.60,1020.47,2031.44,2983.87,2824.00,3176.01,599.53,594.05,41.61,0000 0000 0000 0000 000000
2016-05-08 09:23:55,0.04,1.19,0.00,24.87,28.20,31.21,14.50,49.42,1020.48,2031.66,2983.13,2823.99,3175.99,600.07,594.58,41.66,0000 0000 0000 0000 000000
2016-05-08 09:28:57,0.00,1.19,0.00,24.87,28.20,31.20,14.46,49.51,1020.45,2031.84,2983.00,2823.97,3175.98,599.74,594.31,41.71,0000 0000 0000 0000 000000
2016-05-08 09:33:58,0.02,1.19,0.00,24.88,28.20,31.23,14.49,49.58,1020.39,2031.93,2982.90,2823.72,3175.70,600.03,594.55,41.77,0000 0000 0000 0000 000000
2016-05-08 09:38:59,0.03,1.20,0.00,24.85,28.18,31.20,14.56,49.56,1020.45,2031.96,2982.22,2823.25,3175.14,600.80,595.27,41.82,0000 0000 0000 0000 000000
2016-05-08 09:44:00,0.01,1.20,0.00,24.84,28.17,31.20,14.50,49.58,1020.49,2031.96,2982.00,2823.01,3175.01,600.07,594.65,41.87,0000 0000 0000 0000 000000
2016-05-08 09:49:02,0.01,1.20,0.00,24.81,28.17,31.19,14.45,49.39,1020.46,2031.96,2981.67,2823.00,3174.98,600.18,594.93,41.92,0000 0000 0000 0000 000000
2016-05-08 09:54:02,0.02,1.20,0.00,24.82,28.17,31.17,14.44,49.49,1020.29,2031.94,2981.03,2822.89,3174.50,599.76,594.38,41.97,0000 0000 0000 0000 000000
2016-05-08 09:59:04,0.02,1.20,0.00,24.80,28.17,31.19,14.43,49.49,1020.26,2031.95,2980.95,2822.27,3174.02,600.34,594.89,42.02,0000 0000 0000 0000 000000
2016-05-08 10:04:06,0.02,1.20,0.00,24.81,28.17,31.21,14.50,49.65,1020.24,2031.96,2980.19,2822.01,3173.98,600.14,594.72,42.07,0000 0000 0000 0000 000000
2016-05-08 10:09:07,0.00,1.20,0.00,24.80,28.16,31.20,14.43,49.64,1020.16,2031.97,2980.00,2821.99,3173.67,599.88,594.36,42.12,0000 0000 0000 0000 000000
2016-05-08 10:14:08,0.01,1.20,0.00,24.79,28.15,31.19,14.48,49.42,1020.08,2031.96,2979.80,2821.92,3173.07,599.74,594.22,42.17,0000 0000 0000 0000 000000
2016-05-08 10:19:09,0.03,1.20,0.00,24.78,28.15,31.18,14.55,49.73,1020.07,2031.98,2979.09,2821.44,3173.00,600.38,594.87,42.22,0000 0000 0000 0000 000000
2016-05-08 10:24:11,0.00,1.20,0.00,24.76,28.15,31.20,14.47,49.53,1020.08,2031.97,2978.99,2821.07,3172.98,600.11,594.67,42.27,0000 0000 0000 0000 000000
2016-05-08 10:29:12,0.01,1.20,0.00,24.75,28.15,31.18,14.53,49.68,1020.07,2031.98,2978.83,2821.01,3172.83,600.01,594.48,42.32,0000 0000 0000 0000 000000
2016-05-08 10:34:13,0.02,1.21,0.00,24.76,28.14,31.20,14.59,49.48,1020.08,2031.99,2978.07,2820.99,3172.12,600.07,594.54,42.37,0000 0000 0000 0000 000000
2016-05-08 10:39:14,0.00,1.21,0.00,24.74,28.12,31.18,14.58,49.53,1020.07,2031.99,2977.99,2820.91,3172.01,600.52,595.06,42.42,0000 0000 0000 0000 000000
2016-05-08 10:44:16,0.02,1.21,0.00,24.74,28.12,31.20,14.49,49.56,1020.06,2031.99,2977.75,2820.41,3171.99,600.18,594.76,42.47,0000 0000 0000 0000 000000
2016-05-08 10:49:17,0.02,1.21,0.00,24.74,28.12,31.19,14.48,49.44,1020.07,2031.99,2977.04,2820.04,3171.72,600.41,595.06,42.52,0000 0000 0000 0000 000000
2016-05-08 10:54:18,0.00,1.21,0.00,24.72,28.12,31.17,14.53,49.47,1020.08,2031.99,2976.99,2820.00,3171.09,600.22,594.92,42.57,0000 0000 0000 0000 000000
2016-05-08 10:59:20,0.01,1.21,0.00,24.71,28.11,31.17,14.50,49.48,1020.15,2031.99,2976.47,2819.99,3171.00,600.18,594.89,42.62,0000 0000 0000 0000 000000
2016-05-08 11:04:21,0.02,1.21,0.00,24.73,28.10,31.16,14.41,49.50,1020.38,2031.99,2976.01,2819.64,3170.96,599.79,594.62,42.67,0000 0000 0000 0000 000000
2016-05-08 11:09:22,0.02,1.21,0.00,24.71,28.10,31.16,14.53,49.53,1020.34,2031.99,2975.97,2819.09,3170.59,600.05,594.74,42.73,0000 0000 0000 0000 000000
2016-05-08 11:14:24,0.02,1.21,0.00,24.70,28.10,31.18,14.52,49.40,1020.41,2031.99,2975.45,2819.00,3170.07,600.26,595.11,42.78,0000 0000 0000 0000 000000
2016-05-08 11:19:25,0.00,1.21,0.00,24.67,28.10,31.19,14.49,49.51,1020.37,2031.99,2975.03,2819.00,3170.00,599.96,594.90,42.83,0000 0000 0000 0000 000000
2016-05-08 11:24:26,0.00,1.21,0.00,24.67,28.08,31.18,14.39,49.58,1020.15,2031.99,2974.97,2818.96,3169.97,600.07,594.83,42.88,0000 0000 0000 0000 000000
2016-05-08 11:29:27,0.01,1.21,0.00,24.66,28.07,31.18,14.38,49.49,1020.09,2031.99,2974.76,2818.90,3169.87,599.88,594.63,42.93,0000 0000 0000 0000 000000
2016-05-08 11:34:28,0.03,1.22,0.00,24.66,28.07,31.19,14.57,49.35,1020.09,2031.99,2974.06,2818.41,3169.26,600.34,595.08,42.98,0000 0000 0000 0000 000000
2016-05-08 11:39:30,0.00,1.22,0.00,24.64,28.07,31.20,14.47,49.42,1020.11,2031.99,2974.00,2818.09,3169.04,599.97,594.86,43.03,0000 0000 0000 0000 000000
2016-05-08 11:44:31,0.00,1.22,0.00,24.62,28.06,31.19,14.46,49.43,1020.08,2031.99,2973.98,2818.01,3169.00,599.78,594.54,43.08,0000 0000 0000 0000 000000
2016-05-08 11:49:33,0.00,1.22,0.00,24.61,28.05,31.20,14.45,49.50,1020.10,2031.99,2973.80,2818.00,3169.00,600.11,594.86,43.13,0000 0000 0000 0000 000000
2016-05-08 11:54:33,0.00,1.22,0.00,24.60,28.05,31.18,14.53,49.60,1020.19,2031.99,2973.25,2818.00,3168.97,600.00,594.92,43.18,0000 0000 0000 0000 000000
2016-05-08 11:59:35,0.00,1.22,0.00,24.58,28.05,31.19,14.49,49.50,1020.33,2031.99,2973.05,2817.99,3168.92,600.01,595.04,43.23,0000 0000 0000 0000 000000
2016-05-08 12:04:36,0.01,1.22,0.00,24.56,28.03,31.18,14.50,49.47,1020.47,2031.99,2973.00,2817.95,3168.54,600.06,595.21,43.28,0000 0000 0000 0000 000000
2016-05-08 12:09:37,0.01,1.22,0.00,24.56,28.02,31.20,14.49,49.43,1020.46,2031.99,2973.00,2817.88,3168.19,600.40,595.46,43.33,0000 0000 0000 0000 000000
2016-05-08 12:14:38,0.01,1.22,0.00,24.54,28.02,31.21,14.51,49.38,1020.37,2031.99,2972.97,2817.75,3168.03,600.31,595.45,43.38,0000 0000 0000 0000 000000
2016-05-08 12:19:40,0.02,1.22,0.00,24.51,28.02,31.20,14.54,49.60,1020.33,2031.99,2972.77,2817.24,3168.01,600.08,595.33,43.43,0000 0000 0000 0000 000000
2016-05-08 12:24:41,0.01,1.22,0.00,24.48,28.01,31.21,14.59,49.60,1020.40,2031.99,2972.42,2817.11,3168.00,600.09,595.43,43.48,0000 0000 0000 0000 000000
2016-05-08 12:29:42,0.00,1.22,0.00,24.46,28.00,31.19,14.48,49.49,1020.45,2031.99,2972.09,2817.02,3168.00,599.83,595.31,43.53,0000 0000 0000 0000 000000
2016-05-08 12:34:43,-0.00,1.22,0.00,24.45,28.00,31.20,14.47,49.08,1020.43,2031.99,2972.04,2817.03,3167.99,599.71,595.12,43.58,0000 0000 0000 0000 000000
2016-05-08 12:39:44,0.00,1.22,0.00,24.42,28.00,31.19,14.51,49.20,1020.40,2031.99,2972.00,2817.00,3167.78,600.00,595.40,43.63,0000 0000 0000 0000 000000
2016-05-08 12:44:46,0.00,1.22,0.00,24.41,28.00,31.20,14.47,49.19,1020.43,2031.99,2971.99,2817.00,3167.30,599.87,595.26,43.69,0000 0000 0000 0000 000000
2016-05-08 12:49:47,0.00,1.22,0.00,24.42,27.98,31.18,14.52,49.19,1020.37,2031.99,2971.96,2816.99,3167.16,599.73,595.02,43.74,0000 0000 0000 0000 000000
2016-05-08 12:54:48,0.01,1.22,0.00,24.40,27.97,31.19,14.53,49.23,1020.36,2031.99,2971.57,2816.97,3167.03,600.02,595.44,43.79,0000 0000 0000 0000 000000